COSMOS 2251

Last updated on Wed Jun 28 2023 00:02:17 GMT+0000 (Coordinated Universal Time)

1 22675U 93036A 23178.41339985 .00000164 00000+0 69545-4 0 9999 2 22675 74.0375 158.4325 0023770 102.5552 257.8260 14.32735228569240
UTC large
Height (km)
Speed (km/s)
/
Latitude / Longitude
Inclination (degrees)
Orbital Period (minutes)
Azimuth
Elevation
Range (km)
Doppler Factor

Next 0 passes for location: London (51.5072 / 0.1276)

Sorry there are no passes over London.